Hourly Data Report for October 05, 2019

SHEARWATER RCS
NOVA SCOTIA
Current Station Operator: ECCC - MSC

44°37'47.000" N
63°30'48.000" W
24.00 m
8205092
71264
AAW

Download Data

Hourly Data (October 2019)
Hourly Data Report for October 5, 2019
TIME
LST
Temp Definition
°C
Dew Point Definition
°C
Rel Hum Definition
%
Precip. Amount Definition
mm

Wind Dir Definition
10's deg

Wind Spd Definition
km/h
Visibility Definition
km
Stn Press Definition
kPa
Hmdx Definition


Wind Chill Definition


Weather Definition


00:00 4.2 1.0 80 0.0 32 13   101.27     LegendNANA
01:00 3.9 1.0 81 0.0 33 13   101.37     LegendNANA
02:00 4.1 0.8 79 0.0 32 16   101.39     LegendNANA
03:00 4.1 1.5 83 0.0 31 15   101.40     LegendNANA
04:00 4.0 0.9 80 0.0 32 16   101.49     LegendNANA
05:00 4.1 1.1 81 0.0 32 14   101.57     LegendNANA
06:00 4.2 1.2 80 0.0 32 16   101.64     LegendNANA
07:00 4.8 1.5 79 0.0 32 19   101.73     LegendNANA
08:00 6.2 2.0 75 0.0 32 18   101.82     LegendNANA
09:00 7.8 3.1 72 0.0 32 19   101.88     LegendNANA
10:00 8.4 2.8 68 0.0 32 21   101.93     LegendNANA
11:00 10.2 1.9 56 0.0 32 19   101.95     LegendNANA
12:00 10.5 0.6 51 0.0 32 18   101.95     LegendNANA
13:00 11.0 0.3 47 0.0 32 18   101.95     LegendNANA
14:00 11.6 1.0 48 0.0 30 15   101.92     LegendNANA
15:00 11.5 0.8 48 0.0 30 16   101.94     LegendNANA
16:00 11.5 0.4 46 0.0 30 16   101.99     LegendNANA
17:00 10.9 0.3 48 0.0 31 16   102.08     LegendNANA
18:00 9.8 1.2 55 0.0 30 11   102.11     LegendNANA
19:00 8.8 1.9 62 0.0 27 6   102.16     LegendNANA
20:00 8.1 1.7 64 0.0 28 8   102.18     LegendNANA
21:00 7.8 2.1 67 0.0 28 8   102.21     LegendNANA
22:00 7.6 2.4 69 0.0 28 10   102.26     LegendNANA
23:00 7.1 2.4 72 0.0 29 5   102.28     LegendNANA

Notes on Data Quality.

Legend

  • E = Estimated
  • M = Missing
  • NA = Not Available*
  • [empty] = Indicates an unobserved value
Date modified: